CHINASAT 2C (ZX 2C) (41021 NORAD) Tracking and Keplerian Element Data

This shows tracking and keplerian element data for the satellite.

Feedback or suggestion? Click here.




ElementValue
Catalog41021
NameCHINASAT 2C (ZX 2C)
Epoch Orbit1221
Epoch Day53.2381052
Epoch Year2019
RAAN283.7311
Inclination0.0529
Eccentricity0.0003649
Argument of Perigee71.2066
Mean Anonmoly346.0119
Mean Motion1.00270237
Decay Rate-3.46E-06
L11 41021U 15063A 19053.23810520 -.00000346 00000-0 00000+0 0 9995
L22 41021 0.0529 283.7311 0003649 71.2066 346.0119 1.00270237 12217

Live tracking and technical data element details for CHINASAT 2C (ZX 2C) (NORAD 41021). CHINASAT 2C (ZX 2C) can be tracked NOW for your location showing map with azimuth and elevation plus other details from your city location.

Track the satellite on the map from your city or location and see movement details for azimuth, elevation, latitude, longitude, range, height, and movement on the map or in text.







IsCatalogInMostPopularTable: catalog: 41021, numindb: 183
Update: records affected: 1



GetName: 41021 CHINASAT 2C (ZX 2C)

Hit Count: updated at: Fri, 22 Feb 2019 22:23:59 GMT